Tracking 18987 objects as of 24-Feb-2018
HD Live streaming from Space Station
objects crossing your sky now

OBJECT AB

Track OBJECT AB now!
10-day predictions


NORAD ID: 43136
Int'l Code: 2018-004AB
Perigee: 498.1 km
Apogee: 513.4 km
Inclination: 97.5 °
Period: 94.6 minutes
Semi major axis: 6876 km
RCS: Unknown
Launch date: January 12, 2018
Source: (TBD)
Launch site: SRIHARIKOTA (SRI)
aabbcc
Your satellite tracking list
Your tracking list is empty




NASA's NSSDC Master Catalog

Two Line Element Set (TLE):
1 43136U 18004AB  18055.38975213  .00001352  00000-0  61590-4 0  9993
2 43136  97.5488 117.7086 0011167 129.8989 230.3230 15.22397785  6549
Source of the keplerian elements: AFSPC